FENGYUN 1C DEB, 31511

Orbit data source: Space-Track

FENGYUN 1C DEB, 31511 is space debris in SSO originally from a launch on Mon, 10 May 1999 UTC launched from the Taiyaun Space Center, China (TSC). Fengyun 1C debris stems from the Chinese weather satellite Fengyun-1C, which was intentionally destroyed by a Chinese anti-satellite missile in 2007. This event dramatically increased the amount of space debris, with thousands of trackable fragments posing hazards to satellites and human spaceflight. The Fengyun 1C debris cloud has become a focal point in discussions about space sustainability and the need for international regulations to prevent the creation of new debris.

Loading next visibility...
Identifier
31511, 1999-025BXA
Orbit
SSO
Country
Flag of CNCN / PRC
Related business
Manufacturer
Unknown
Mission
Spacecraft
Bus & Motor
Unknown
Mass
Unknown
Launch date (UTC)
1999-05-10 (27 years ago)
Launch vehicle
Unknown
Launch site
Taiyaun Space Center, China (TSC)
Object type
Payload
Rocket body
Debris
Shape & HBR
Unknown shape, 0.1 m
Radar Cross Section
Medium (>0.1 m² and <1 m²)

Expand to show TLE details & history
Last TLE update: 2 days ago

TLE from 2 days ago
0 FENGYUN 1C DEB
1 31511U 99025BXA 26234.74104633  .00001068  00000-0  41512-3 0  9992
2 31511  99.0803  58.5427 0106012 214.2228 145.2090 14.29047961994134
Epoch: 2026-08-22T17:47Z
TLE epoch observation values (Epoch: 2026-08-22T17:47:06.402Z)
Latitude
-0.00001°
Longitude
-179.28108°
Altitude
860.551 km
Speed
7.39 km/s
True Right ascension
03h 54m 10s
True Declination
0° 00' 00"
Sunlit
Object was in daylight at epoch
Visualization orbit readout
Latitude
Unknown
Longitude
Unknown
Altitude
Unknown
Speed
Unknown
Apparent Right ascension
Unknown
Apparent Declination
Unknown
Sunlit
N/A
Visualization observer readout
Local Sidereal Time
13:15:17
Azimuth
Unknown
Elevation
Unknown
Doppler factor
Unknown
Orbital elements
Apogee altitude
868.092 km
Perigee altitude
716.066 km
Semi-major axis
7,170.216 km
Eccentricity
0.0106
Inclination
99.0803°
RAAN
58.5427°
Arg. of periapsis
214.2228°
True anomaly
145.89467°
Mean anomaly
145.209°
Eccentric anomaly
145.55258°
Mean motion
3.57474 °/min
Orbital period
100.71 mins
BSTAR
0.00041512
Loading maneuver chart data...
Computing Atmospheric mass density...
Loading historical data...
Loading historical data...
Loading historical data...
Loading historical data...
Loading historical data...
Loading historical data...
Loading historical data...

Documentation

Showing up to 5 results
|